Time,TemperatureF,DewpointF,PressureIn,WindDirection,WindDirectionDegrees,WindSpeedMPH,WindSpeedGustMPH,Humidity,HourlyPrecipIn,Conditions,Clouds,dailyrainin,SoftwareType,DateUTC
2013-04-28 00:02:00,53.0,-99.9,-100.00,North,-999,-999.0,-999.0,-999,-99.99,,,-99.99,,2013-04-28 06:02:00,
2013-04-28 00:13:00,53.0,-99.9,-100.00,North,-999,-999.0,-999.0,-999,-99.99,,,-99.99,,2013-04-28 06:13:00,
2013-04-28 00:22:00,53.0,-99.9,-100.00,North,-999,-999.0,-999.0,-999,-99.99,,,-99.99,,2013-04-28 06:22:00,
2013-04-28 00:30:00,54.0,-99.9,-100.00,North,-999,-999.0,-999.0,-999,0.01,,,-99.99,,2013-04-28 06:30:00,
2013-04-28 00:52:00,54.0,-99.9,-100.00,North,-999,-999.0,-999.0,-999,0.01,,,-99.99,,2013-04-28 06:52:00,
2013-04-28 01:02:00,54.0,-99.9,-100.00,North,-999,-999.0,-999.0,-999,0.01,,,-99.99,,2013-04-28 07:02:00,
2013-04-28 01:11:00,54.0,-99.9,-100.00,North,-999,-999.0,-999.0,-999,0.01,,,-99.99,,2013-04-28 07:11:00,
2013-04-28 01:22:00,54.0,-99.9,-100.00,North,-999,-999.0,-999.0,-999,0.01,,,-99.99,,2013-04-28 07:22:00,
2013-04-28 01:30:00,53.0,-99.9,-100.00,North,-999,-999.0,-999.0,-999,0.01,,,0.00,,2013-04-28 07:30:00,
2013-04-28 01:52:00,53.0,-99.9,-100.00,North,-999,-999.0,-999.0,-999,0.01,,,0.00,,2013-04-28 07:52:00,
2013-04-28 02:02:00,53.0,-99.9,-100.00,North,-999,-999.0,-999.0,-999,0.01,,,0.00,,2013-04-28 08:02:00,
2013-04-28 02:12:00,53.0,-99.9,-100.00,North,-999,-999.0,-999.0,-999,0.01,,,0.00,,2013-04-28 08:12:00,
2013-04-28 02:22:00,53.0,-99.9,-100.00,North,-999,-999.0,-999.0,-999,0.01,,,0.00,,2013-04-28 08:22:00,
2013-04-28 02:30:00,51.0,-99.9,-100.00,North,-999,-999.0,-999.0,-999,-99.99,,,-99.99,,2013-04-28 08:30:00,
2013-04-28 02:52:00,51.0,-99.9,-100.00,North,-999,-999.0,-999.0,-999,-99.99,,,-99.99,,2013-04-28 08:52:00,
2013-04-28 03:01:00,51.0,-99.9,-100.00,North,-999,-999.0,-999.0,-999,-99.99,,,-99.99,,2013-04-28 09:01:00,
2013-04-28 03:12:00,51.0,-99.9,-100.00,North,-999,-999.0,-999.0,-999,-99.99,,,-99.99,,2013-04-28 09:12:00,
2013-04-28 03:22:00,51.0,-99.9,-100.00,North,-999,-999.0,-999.0,-999,-99.99,,,-99.99,,2013-04-28 09:22:00,
2013-04-28 03:30:00,50.0,-99.9,-100.00,North,-999,-999.0,-999.0,-999,0.02,,,0.00,,2013-04-28 09:30:00,
2013-04-28 03:53:00,50.0,-99.9,-100.00,North,-999,-999.0,-999.0,-999,0.02,,,0.00,,2013-04-28 09:53:00,
2013-04-28 04:03:00,50.0,-99.9,-100.00,North,-999,-999.0,-999.0,-999,0.02,,,0.00,,2013-04-28 10:03:00,
2013-04-28 04:12:00,50.0,-99.9,-100.00,North,-999,-999.0,-999.0,-999,0.02,,,0.00,,2013-04-28 10:12:00,
2013-04-28 04:23:00,50.0,-99.9,-100.00,North,-999,-999.0,-999.0,-999,0.02,,,0.00,,2013-04-28 10:23:00,
2013-04-28 04:30:00,45.0,-99.9,-100.00,North,-999,-999.0,-999.0,-999,0.00,,,0.00,,2013-04-28 10:30:00,
2013-04-28 04:53:00,45.0,-99.9,-100.00,North,-999,-999.0,-999.0,-999,0.00,,,0.00,,2013-04-28 10:53:00,
2013-04-28 05:03:00,45.0,-99.9,-100.00,North,-999,-999.0,-999.0,-999,0.00,,,0.00,,2013-04-28 11:03:00,
2013-04-28 05:11:00,45.0,-99.9,-100.00,North,-999,-999.0,-999.0,-999,0.00,,,0.00,,2013-04-28 11:11:00,
2013-04-28 05:22:00,45.0,-99.9,-100.00,North,-999,-999.0,-999.0,-999,0.00,,,0.00,,2013-04-28 11:22:00,
2013-04-28 05:30:00,43.0,-99.9,-100.00,North,-999,-999.0,-999.0,-999,0.00,,,0.01,,2013-04-28 11:30:00,
2013-04-28 05:52:00,43.0,-99.9,-100.00,North,-999,-999.0,-999.0,-999,0.00,,,0.01,,2013-04-28 11:52:00,
2013-04-28 06:02:00,43.0,-99.9,-100.00,North,-999,-999.0,-999.0,-999,0.00,,,0.01,,2013-04-28 12:02:00,
2013-04-28 06:12:00,43.0,-99.9,-100.00,North,-999,-999.0,-999.0,-999,0.00,,,0.01,,2013-04-28 12:12:00,
2013-04-28 06:22:00,43.0,-99.9,-100.00,North,-999,-999.0,-999.0,-999,0.00,,,0.01,,2013-04-28 12:22:00,
2013-04-28 06:30:00,43.0,-99.9,-100.00,North,-999,-999.0,-999.0,-999,0.00,,,0.01,,2013-04-28 12:30:00,
2013-04-28 06:52:00,43.0,-99.9,-100.00,North,-999,-999.0,-999.0,-999,0.00,,,0.01,,2013-04-28 12:52:00,
2013-04-28 07:02:00,43.0,-99.9,-100.00,North,-999,-999.0,-999.0,-999,0.00,,,0.01,,2013-04-28 13:02:00,
2013-04-28 07:11:00,43.0,-99.9,-100.00,North,-999,-999.0,-999.0,-999,0.00,,,0.01,,2013-04-28 13:11:00,
2013-04-28 07:22:00,43.0,-99.9,-100.00,North,-999,-999.0,-999.0,-999,0.00,,,0.01,,2013-04-28 13:22:00,
2013-04-28 07:30:00,43.0,-99.9,-100.00,North,-999,-999.0,-999.0,-999,0.00,,,0.02,,2013-04-28 13:30:00,
2013-04-28 07:52:00,43.0,-99.9,-100.00,North,-999,-999.0,-999.0,-999,0.00,,,0.02,,2013-04-28 13:52:00,
2013-04-28 08:02:00,43.0,-99.9,-100.00,North,-999,-999.0,-999.0,-999,0.00,,,0.02,,2013-04-28 14:02:00,
2013-04-28 08:11:00,43.0,-99.9,-100.00,North,-999,-999.0,-999.0,-999,0.00,,,0.02,,2013-04-28 14:11:00,
2013-04-28 08:22:00,43.0,-99.9,-100.00,North,-999,-999.0,-999.0,-999,0.00,,,0.02,,2013-04-28 14:22:00,
2013-04-28 08:30:00,47.0,-99.9,-100.00,North,-999,-999.0,-999.0,-999,0.00,,,0.02,,2013-04-28 14:30:00,
2013-04-28 08:52:00,47.0,-99.9,-100.00,North,-999,-999.0,-999.0,-999,0.00,,,0.02,,2013-04-28 14:52:00,
2013-04-28 09:02:00,47.0,-99.9,-100.00,North,-999,-999.0,-999.0,-999,0.00,,,0.02,,2013-04-28 15:02:00,
2013-04-28 09:12:00,47.0,-99.9,-100.00,North,-999,-999.0,-999.0,-999,0.00,,,0.02,,2013-04-28 15:12:00,
2013-04-28 09:22:00,47.0,-99.9,-100.00,North,-999,-999.0,-999.0,-999,0.00,,,0.02,,2013-04-28 15:22:00,
2013-04-28 09:30:00,48.0,-99.9,-100.00,North,-999,-999.0,-999.0,-999,0.00,,,0.02,,2013-04-28 15:30:00,
2013-04-28 09:53:00,48.0,-99.9,-100.00,North,-999,-999.0,-999.0,-999,0.00,,,0.02,,2013-04-28 15:53:00,
2013-04-28 10:03:00,48.0,-99.9,-100.00,North,-999,-999.0,-999.0,-999,0.00,,,0.02,,2013-04-28 16:03:00,
2013-04-28 10:13:00,48.0,-99.9,-100.00,North,-999,-999.0,-999.0,-999,0.00,,,0.02,,2013-04-28 16:13:00,
2013-04-28 10:23:00,48.0,-99.9,-100.00,North,-999,-999.0,-999.0,-999,0.00,,,0.02,,2013-04-28 16:23:00,
2013-04-28 10:30:00,52.0,-99.9,-100.00,North,-999,-999.0,-999.0,-999,0.01,,,0.03,,2013-04-28 16:30:00,
2013-04-28 10:53:00,52.0,-99.9,-100.00,North,-999,-999.0,-999.0,-999,0.01,,,0.03,,2013-04-28 16:53:00,
2013-04-28 11:02:00,52.0,-99.9,-100.00,North,-999,-999.0,-999.0,-999,0.01,,,0.03,,2013-04-28 17:02:00,
2013-04-28 11:12:00,52.0,-99.9,-100.00,North,-999,-999.0,-999.0,-999,0.01,,,0.03,,2013-04-28 17:12:00,
2013-04-28 11:22:00,52.0,-99.9,-100.00,North,-999,-999.0,-999.0,-999,0.01,,,0.03,,2013-04-28 17:22:00,
2013-04-28 11:30:00,54.0,-99.9,-100.00,North,-999,-999.0,-999.0,-999,-99.99,,,0.02,,2013-04-28 17:30:00,
2013-04-28 11:52:00,54.0,-99.9,-100.00,North,-999,-999.0,-999.0,-999,-99.99,,,0.02,,2013-04-28 17:52:00,
2013-04-28 12:02:00,54.0,-99.9,-100.00,North,-999,-999.0,-999.0,-999,-99.99,,,0.02,,2013-04-28 18:02:00,
2013-04-28 12:12:00,54.0,-99.9,-100.00,North,-999,-999.0,-999.0,-999,-99.99,,,0.02,,2013-04-28 18:12:00,
2013-04-28 12:23:00,54.0,-99.9,-100.00,North,-999,-999.0,-999.0,-999,-99.99,,,0.02,,2013-04-28 18:23:00,
2013-04-28 12:30:00,55.0,-99.9,-100.00,North,-999,-999.0,-999.0,-999,0.01,,,0.01,,2013-04-28 18:30:00,
2013-04-28 12:52:00,55.0,-99.9,-100.00,North,-999,-999.0,-999.0,-999,0.01,,,0.01,,2013-04-28 18:52:00,
2013-04-28 13:02:00,55.0,-99.9,-100.00,North,-999,-999.0,-999.0,-999,0.01,,,0.01,,2013-04-28 19:02:00,
2013-04-28 13:11:00,55.0,-99.9,-100.00,North,-999,-999.0,-999.0,-999,0.01,,,0.01,,2013-04-28 19:11:00,
2013-04-28 13:22:00,55.0,-99.9,-100.00,North,-999,-999.0,-999.0,-999,0.01,,,0.01,,2013-04-28 19:22:00,
2013-04-28 13:30:00,56.0,-99.9,-100.00,North,-999,-999.0,-999.0,-999,0.00,,,0.01,,2013-04-28 19:30:00,
2013-04-28 13:52:00,56.0,-99.9,-100.00,North,-999,-999.0,-999.0,-999,0.00,,,0.01,,2013-04-28 19:52:00,
2013-04-28 14:02:00,56.0,-99.9,-100.00,North,-999,-999.0,-999.0,-999,0.00,,,0.01,,2013-04-28 20:02:00,
2013-04-28 14:12:00,56.0,-99.9,-100.00,North,-999,-999.0,-999.0,-999,0.00,,,0.01,,2013-04-28 20:12:00,
2013-04-28 14:22:00,56.0,-99.9,-100.00,North,-999,-999.0,-999.0,-999,0.00,,,0.01,,2013-04-28 20:22:00,
2013-04-28 14:30:00,56.0,-99.9,-100.00,North,-999,-999.0,-999.0,-999,0.00,,,0.03,,2013-04-28 20:30:00,
2013-04-28 14:52:00,56.0,-99.9,-100.00,North,-999,-999.0,-999.0,-999,0.00,,,0.03,,2013-04-28 20:52:00,
2013-04-28 15:02:00,56.0,-99.9,-100.00,North,-999,-999.0,-999.0,-999,0.00,,,0.03,,2013-04-28 21:02:00,
2013-04-28 15:12:00,56.0,-99.9,-100.00,North,-999,-999.0,-999.0,-999,0.00,,,0.03,,2013-04-28 21:12:00,
2013-04-28 15:22:00,56.0,-99.9,-100.00,North,-999,-999.0,-999.0,-999,0.00,,,0.03,,2013-04-28 21:22:00,
2013-04-28 15:30:00,56.0,-99.9,-100.00,North,-999,-999.0,-999.0,-999,-99.99,,,0.01,,2013-04-28 21:30:00,
2013-04-28 15:53:00,56.0,-99.9,-100.00,North,-999,-999.0,-999.0,-999,-99.99,,,0.01,,2013-04-28 21:53:00,
2013-04-28 16:03:00,56.0,-99.9,-100.00,North,-999,-999.0,-999.0,-999,-99.99,,,0.01,,2013-04-28 22:03:00,
2013-04-28 16:13:00,56.0,-99.9,-100.00,North,-999,-999.0,-999.0,-999,-99.99,,,0.01,,2013-04-28 22:13:00,
2013-04-28 16:23:00,56.0,-99.9,-100.00,North,-999,-999.0,-999.0,-999,-99.99,,,0.01,,2013-04-28 22:23:00,
2013-04-28 16:30:00,55.0,-99.9,-100.00,North,-999,-999.0,-999.0,-999,0.00,,,0.02,,2013-04-28 22:30:00,
2013-04-28 16:53:00,55.0,-99.9,-100.00,North,-999,-999.0,-999.0,-999,0.00,,,0.02,,2013-04-28 22:53:00,
2013-04-28 17:02:00,55.0,-99.9,-100.00,North,-999,-999.0,-999.0,-999,0.00,,,0.02,,2013-04-28 23:02:00,
2013-04-28 17:12:00,55.0,-99.9,-100.00,North,-999,-999.0,-999.0,-999,0.00,,,0.02,,2013-04-28 23:12:00,
2013-04-28 17:22:00,55.0,-99.9,-100.00,North,-999,-999.0,-999.0,-999,0.00,,,0.02,,2013-04-28 23:22:00,
2013-04-28 17:30:00,55.0,-99.9,-100.00,North,-999,-999.0,-999.0,-999,0.01,,,-99.99,,2013-04-28 23:30:00,
2013-04-28 17:52:00,55.0,-99.9,-100.00,North,-999,-999.0,-999.0,-999,0.01,,,-99.99,,2013-04-28 23:52:00,
2013-04-28 18:02:00,55.0,-99.9,-100.00,North,-999,-999.0,-999.0,-999,0.01,,,-99.99,,2013-04-29 00:02:00,
2013-04-28 18:11:00,55.0,-99.9,-100.00,North,-999,-999.0,-999.0,-999,0.01,,,-99.99,,2013-04-29 00:11:00,
2013-04-28 18:22:00,55.0,-99.9,-100.00,North,-999,-999.0,-999.0,-999,0.01,,,-99.99,,2013-04-29 00:22:00,
2013-04-28 18:30:00,54.0,-99.9,-100.00,North,-999,-999.0,-999.0,-999,-99.99,,,0.02,,2013-04-29 00:30:00,
2013-04-28 18:52:00,54.0,-99.9,-100.00,North,-999,-999.0,-999.0,-999,-99.99,,,0.02,,2013-04-29 00:52:00,
2013-04-28 19:02:00,54.0,-99.9,-100.00,North,-999,-999.0,-999.0,-999,-99.99,,,0.02,,2013-04-29 01:02:00,
2013-04-28 19:12:00,54.0,-99.9,-100.00,North,-999,-999.0,-999.0,-999,-99.99,,,0.02,,2013-04-29 01:12:00,
2013-04-28 19:22:00,54.0,-99.9,-100.00,North,-999,-999.0,-999.0,-999,-99.99,,,0.02,,2013-04-29 01:22:00,
2013-04-28 19:30:00,53.0,-99.9,-100.00,North,-999,-999.0,-999.0,-999,0.00,,,0.02,,2013-04-29 01:30:00,
2013-04-28 19:52:00,53.0,-99.9,-100.00,North,-999,-999.0,-999.0,-999,0.00,,,0.02,,2013-04-29 01:52:00,
2013-04-28 20:02:00,53.0,-99.9,-100.00,North,-999,-999.0,-999.0,-999,0.00,,,0.02,,2013-04-29 02:02:00,
2013-04-28 20:11:00,53.0,-99.9,-100.00,North,-999,-999.0,-999.0,-999,0.00,,,0.02,,2013-04-29 02:11:00,
2013-04-28 20:22:00,53.0,-99.9,-100.00,North,-999,-999.0,-999.0,-999,0.00,,,0.02,,2013-04-29 02:22:00,
2013-04-28 20:30:00,48.0,-99.9,-100.00,North,-999,-999.0,-999.0,-999,0.00,,,0.02,,2013-04-29 02:30:00,
2013-04-28 20:52:00,48.0,-99.9,-100.00,North,-999,-999.0,-999.0,-999,0.00,,,0.02,,2013-04-29 02:52:00,
2013-04-28 21:02:00,48.0,-99.9,-100.00,North,-999,-999.0,-999.0,-999,0.00,,,0.02,,2013-04-29 03:02:00,
2013-04-28 21:12:00,48.0,-99.9,-100.00,North,-999,-999.0,-999.0,-999,0.00,,,0.02,,2013-04-29 03:12:00,
2013-04-28 21:22:00,48.0,-99.9,-100.00,North,-999,-999.0,-999.0,-999,0.00,,,0.02,,2013-04-29 03:22:00,
2013-04-28 21:30:00,52.0,-99.9,-100.00,North,-999,-999.0,-999.0,-999,0.00,,,0.00,,2013-04-29 03:30:00,
2013-04-28 21:53:00,52.0,-99.9,-100.00,North,-999,-999.0,-999.0,-999,0.00,,,0.00,,2013-04-29 03:53:00,
2013-04-28 22:03:00,52.0,-99.9,-100.00,North,-999,-999.0,-999.0,-999,0.00,,,0.00,,2013-04-29 04:03:00,
2013-04-28 22:13:00,52.0,-99.9,-100.00,North,-999,-999.0,-999.0,-999,0.00,,,0.00,,2013-04-29 04:13:00,
2013-04-28 22:23:00,52.0,-99.9,-100.00,North,-999,-999.0,-999.0,-999,0.00,,,0.00,,2013-04-29 04:23:00,
2013-04-28 23:30:00,52.0,-99.9,-100.00,North,-999,-999.0,-999.0,-999,0.00,,,0.02,,2013-04-29 05:30:00,
2013-04-28 23:52:00,52.0,-99.9,-100.00,North,-999,-999.0,-999.0,-999,0.00,,,0.02,,2013-04-29 05:52:00,